sat.trackr.live / text

‹ back to catalog

INMARSAT 3-F5

NORAD 25153 · 1998-006B

PAYLOAD ACTIVE UNKNOWN

§ Identity

Operator
Country
IM
Launch date
1998-02-04
Launch site
FRGUI
Launch vehicle
Mass (kg)
RCS (m²)
14.50

Purposes: comms

External: N2YO · Heavens-Above · Gunter

§ Orbital elements

Epoch: 2026-09-19T08:09:54.969120Z

Period
1,436.08 min
Inclination
9.8989°
Eccentricity
0.0004479
Mean motion
1.00273207 rev/d
Perigee alt
35,767.3 km
Apogee alt
35,805.1 km
Semi-major
42,164.3 km
B*
0.0000e+0
RAAN
52.2910°
Arg perigee
124.7993°
Mean anomaly
249.6909°
Rev number
10,484

§ Raw data

INMARSAT 3-F51 25153U 98006B   26262.34021955 -.00000292  00000+0  00000+0 0  99982 25153   9.8989  52.2910 0004479 124.7993 249.6909  1.00273207104847

JSON: /api/v1/satellites/25153 · /tle

For live sub-satellite position, see the globe view (requires WebGL).

§ Visibility from observer

Set your observer location to see the next 7 days of passes ≥ 10°. The values pass through the URL so the page stays shareable.

No JS? Fill the form by hand. The geolocation button needs JavaScript.